When you browse on this site, cookies collect data to enhance your experience and personalize the content and advertising you see.
Visit our Privacy Policy to learn more. By continuing to use the site, you agree to this use of cookies and data.
  • In Romania
  • List of Countries
  • For 7 days
  • Water Temperature
  • Weather Map
  • Weather Widgets
  • user-avatar
    Login

    Hourly Weather Mérida

    Today, 28 February, Friday

    Time Temperature Precipitation Wind Pressure Humidity
    00:00 +14°C° 0 mm 0 mps 593 mmHg 92%
    01:00 +14°C° 0 mm 0 mps 593 mmHg 90%
    02:00 +14°C° 0.1 mm 0 mps 593 mmHg 91%
    03:00 +14°C° 0.1 mm 0 mps 593 mmHg 91%
    04:00 +13°C° 0.1 mm 0 mps 593 mmHg 92%
    05:00 +14°C° 0 mm 0 mps 593 mmHg 90%
    06:00 +15°C° 0 mm 1 mps 594 mmHg 88%
    07:00 +15°C° 0 mm 1 mps 594 mmHg 86%
    08:00 +18°C° 0 mm 1 mps 595 mmHg 80%
    09:00 +20°C° 0 mm 1 mps 596 mmHg 75%
    10:00 +21°C° 0 mm 1 mps 597 mmHg 70%
    11:00 +20°C° 0.2 mm 2 mps 596 mmHg 75%
    12:00 +19°C° 0.2 mm 2 mps 595 mmHg 81%
    13:00 +19°C° 0.2 mm 2 mps 594 mmHg 86%
    14:00 +19°C° 0.3 mm 2 mps 593 mmHg 87%
    15:00 +20°C° 0.3 mm 1 mps 593 mmHg 88%
    16:00 +19°C° 0.3 mm 1 mps 592 mmHg 89%
    17:00 +19°C° 0.1 mm 1 mps 592 mmHg 90%
    18:00 +16°C° 0.1 mm 0 mps 592 mmHg 92%
    19:00 +16°C° 0.1 mm 0 mps 593 mmHg 94%
    20:00 +15°C° 0.1 mm 0 mps 593 mmHg 93%
    21:00 +15°C° 0.1 mm 0 mps 593 mmHg 91%
    22:00 +16°C° 0.1 mm 1 mps 594 mmHg 90%
    23:00 +15°C° 0 mm 1 mps 593 mmHg 89%

    Tomorrow, 29 February, Saturday

    Time Temperature Precipitation Wind Pressure Humidity
    00:00 +15°C° 0 mm 1 mps 593 mmHg 89%
    01:00 +14°C° 0 mm 1 mps 592 mmHg 88%
    02:00 +14°C° 0 mm 1 mps 592 mmHg 86%
    03:00 +13°C° 0 mm 1 mps 592 mmHg 84%
    04:00 +13°C° 0 mm 1 mps 592 mmHg 82%
    05:00 +13°C° 0 mm 1 mps 592 mmHg 79%
    06:00 +14°C° 0 mm 1 mps 593 mmHg 76%
    07:00 +15°C° 0 mm 1 mps 594 mmHg 73%
    08:00 +18°C° 0 mm 1 mps 595 mmHg 68%
    09:00 +20°C° 0 mm 1 mps 597 mmHg 64%
    10:00 +21°C° 0 mm 2 mps 598 mmHg 59%
    11:00 +21°C° 0.1 mm 2 mps 597 mmHg 64%
    12:00 +21°C° 0.1 mm 2 mps 596 mmHg 70%
    13:00 +20°C° 0.1 mm 2 mps 595 mmHg 75%
    14:00 +20°C° 0.2 mm 2 mps 594 mmHg 79%
    15:00 +20°C° 0.2 mm 1 mps 594 mmHg 82%
    16:00 +20°C° 0.2 mm 1 mps 593 mmHg 85%
    17:00 +19°C° 0.1 mm 1 mps 593 mmHg 88%
    18:00 +19°C° 0.1 mm 1 mps 593 mmHg 91%
    19:00 +16°C° 0.1 mm 0 mps 593 mmHg 94%
    20:00 +16°C° 0.1 mm 0 mps 593 mmHg 93%
    21:00 +15°C° 0.1 mm 0 mps 594 mmHg 93%
    22:00 +15°C° 0.1 mm 0 mps 594 mmHg 92%
    23:00 +14°C° 0 mm 0 mps 593 mmHg 92%

    Day after tomorrow, 1 March, Sunday

    Time Temperature Precipitation Wind Pressure Humidity
    00:00 +14°C° 0 mm 0 mps 593 mmHg 92%
    01:00 +13°C° 0 mm 0 mps 592 mmHg 92%
    02:00 +13°C° 0 mm 0 mps 592 mmHg 90%
    03:00 +14°C° 0 mm 1 mps 592 mmHg 89%
    04:00 +13°C° 0 mm 1 mps 592 mmHg 88%
    05:00 +14°C° 0 mm 1 mps 592 mmHg 84%
    06:00 +15°C° 0 mm 1 mps 593 mmHg 80%
    07:00 +15°C° 0 mm 1 mps 594 mmHg 76%
    08:00 +18°C° 0 mm 1 mps 595 mmHg 71%
    09:00 +19°C° 0 mm 2 mps 596 mmHg 66%
    10:00 +21°C° 0 mm 2 mps 598 mmHg 60%
    11:00 +21°C° 0.1 mm 2 mps 597 mmHg 65%
    12:00 +21°C° 0.1 mm 2 mps 596 mmHg 70%
    13:00 +21°C° 0.1 mm 2 mps 595 mmHg 74%
    14:00 +20°C° 0.2 mm 2 mps 594 mmHg 79%
    15:00 +20°C° 0.2 mm 2 mps 593 mmHg 83%
    16:00 +20°C° 0.2 mm 1 mps 592 mmHg 88%
    17:00 +19°C° 0.1 mm 1 mps 592 mmHg 90%
    18:00 +19°C° 0.1 mm 1 mps 592 mmHg 92%
    19:00 +16°C° 0.1 mm 0 mps 592 mmHg 94%
    20:00 +16°C° 0.1 mm 0 mps 593 mmHg 94%
    21:00 +18°C° 0.1 mm 1 mps 593 mmHg 93%
    22:00 +18°C° 0.1 mm 1 mps 593 mmHg 92%
    23:00 +16°C° 0.1 mm 1 mps 593 mmHg 92%

    2 March, Monday

    Time Temperature Precipitation Wind Pressure Humidity
    00:00 +15°C° 0.1 mm 0 mps 593 mmHg 93%
    01:00 +14°C° 0.1 mm 0 mps 592 mmHg 93%
    02:00 +14°C° 0 mm 0 mps 592 mmHg 93%
    03:00 +15°C° 0 mm 1 mps 592 mmHg 92%
    04:00 +14°C° 0 mm 1 mps 592 mmHg 91%
    05:00 +15°C° 0 mm 1 mps 592 mmHg 88%
    06:00 +15°C° 0 mm 1 mps 593 mmHg 85%
    07:00 +16°C° 0 mm 1 mps 594 mmHg 81%
    08:00 +19°C° 0 mm 1 mps 595 mmHg 76%
    09:00 +20°C° 0 mm 2 mps 596 mmHg 70%
    10:00 +21°C° 0 mm 2 mps 597 mmHg 64%
    11:00 +21°C° 0.1 mm 2 mps 596 mmHg 69%
    12:00 +21°C° 0.1 mm 2 mps 595 mmHg 74%
    13:00 +20°C° 0.1 mm 2 mps 594 mmHg 79%
    14:00 +20°C° 0.2 mm 2 mps 593 mmHg 82%
    15:00 +20°C° 0.2 mm 1 mps 592 mmHg 85%
    16:00 +20°C° 0.2 mm 1 mps 592 mmHg 87%
    17:00 +19°C° 0.1 mm 1 mps 592 mmHg 89%
    18:00 +19°C° 0.1 mm 1 mps 592 mmHg 91%
    19:00 +16°C° 0.1 mm 0 mps 592 mmHg 93%
    20:00 +16°C° 0.1 mm 0 mps 592 mmHg 93%
    21:00 +18°C° 0.1 mm 1 mps 592 mmHg 93%
    22:00 +16°C° 0.1 mm 1 mps 593 mmHg 93%
    23:00 +16°C° 0 mm 1 mps 592 mmHg 93%

    3 March, Tuesday

    Time Temperature Precipitation Wind Pressure Humidity
    00:00 +16°C° 0 mm 1 mps 592 mmHg 92%
    01:00 +15°C° 0 mm 1 mps 592 mmHg 91%
    02:00 +15°C° 0 mm 1 mps 592 mmHg 91%
    03:00 +14°C° 0 mm 1 mps 591 mmHg 91%
    04:00 +14°C° 0 mm 1 mps 591 mmHg 91%
    05:00 +15°C° 0 mm 1 mps 592 mmHg 87%
    06:00 +15°C° 0 mm 1 mps 593 mmHg 84%
    07:00 +16°C° 0 mm 1 mps 593 mmHg 80%
    08:00 +19°C° 0 mm 1 mps 594 mmHg 75%
    09:00 +20°C° 0 mm 1 mps 595 mmHg 70%
    10:00 +21°C° 0 mm 2 mps 596 mmHg 64%
    11:00 +21°C° 0.1 mm 2 mps 596 mmHg 68%
    12:00 +21°C° 0.1 mm 2 mps 595 mmHg 72%
    13:00 +21°C° 0.1 mm 2 mps 594 mmHg 76%
    14:00 +20°C° 0.1 mm 2 mps 593 mmHg 79%
    15:00 +21°C° 0.1 mm 1 mps 593 mmHg 81%
    16:00 +21°C° 0.1 mm 1 mps 592 mmHg 83%
    17:00 +20°C° 0.2 mm 1 mps 592 mmHg 87%
    18:00 +19°C° 0.2 mm 1 mps 592 mmHg 90%
    19:00 +17°C° 0.2 mm 0 mps 592 mmHg 94%
    20:00 +16°C° 0.1 mm 0 mps 593 mmHg 93%
    21:00 +16°C° 0.1 mm 0 mps 593 mmHg 93%
    22:00 +16°C° 0.1 mm 0 mps 593 mmHg 93%
    23:00 +15°C° 0 mm 0 mps 593 mmHg 92%

    4 March, Wednesday

    Time Temperature Precipitation Wind Pressure Humidity
    00:00 +15°C° 0 mm 0 mps 593 mmHg 92%
    01:00 +15°C° 0 mm 0 mps 592 mmHg 92%
    02:00 +15°C° 0 mm 1 mps 592 mmHg 91%
    03:00 +15°C° 0 mm 1 mps 592 mmHg 90%
    04:00 +14°C° 0 mm 1 mps 592 mmHg 90%
    05:00 +15°C° 0 mm 1 mps 593 mmHg 85%
    06:00 +15°C° 0 mm 1 mps 593 mmHg 81%
    07:00 +16°C° 0 mm 1 mps 594 mmHg 77%
    08:00 +19°C° 0 mm 1 mps 595 mmHg 71%
    09:00 +21°C° 0 mm 1 mps 597 mmHg 66%
    10:00 +23°C° 0 mm 2 mps 598 mmHg 61%
    11:00 +23°C° 0 mm 2 mps 597 mmHg 64%
    12:00 +23°C° 0 mm 2 mps 596 mmHg 68%
    13:00 +23°C° 0 mm 2 mps 595 mmHg 71%
    14:00 +21°C° 0.1 mm 2 mps 595 mmHg 74%
    15:00 +21°C° 0.1 mm 2 mps 594 mmHg 76%
    16:00 +21°C° 0.1 mm 2 mps 593 mmHg 79%
    17:00 +21°C° 0.1 mm 1 mps 593 mmHg 84%
    18:00 +20°C° 0.1 mm 1 mps 593 mmHg 88%
    19:00 +17°C° 0.1 mm 0 mps 593 mmHg 92%
    20:00 +16°C° 0.1 mm 0 mps 593 mmHg 92%
    21:00 +16°C° 0.1 mm 0 mps 594 mmHg 91%
    22:00 +16°C° 0.1 mm 0 mps 594 mmHg 91%
    23:00 +18°C° 0 mm 1 mps 594 mmHg 90%
    Show more